Simultaneous Nadir Overpasses (SNOs) Predictions

Prediction of SNOs between LANDSAT-8 and METOP-B Satellite Orbit:

Table of predicted SNOs for the next 14.0 days since TLE Epoch: 6/26/2015
Index Date (LANDSAT-8) Time (LANDSAT-8) Lat,Lon (LANDSAT-8) SZA (LANDSAT-8 ) Date (METOP-B) Time (METOP-B) Lat,Lon (METOP-B) SZA (METOP-B ) Distance(km) Time Diff (sec)
1 06/27/2015 09:16:50 -79.19,-117.45 123.40 06/27/2015 09:15:37 -79.63,-119.68 123.17 66.51 73
2 06/27/2015 10:05:16 81.12, 68.58 59.89 06/27/2015 10:05:14 81.12, 68.70 59.91 2.07 2
3 06/27/2015 10:54:42 -81.14,-123.47 120.06 06/27/2015 10:55:53 -81.15,-123.37 120.02 1.74 71
4 06/30/2015 04:50:09 -81.08, -33.32 120.09 06/30/2015 04:48:58 -81.08, -33.47 120.14 2.63 71
5 06/30/2015 05:39:33 81.13, 135.13 60.03 06/30/2015 05:39:35 81.13, 135.32 60.06 3.30 2
6 06/30/2015 06:28:09 -81.81, -36.76 117.17 06/30/2015 06:29:22 -81.27, -36.44 117.34 60.94 73
7 07/03/2015 00:24:27 -81.08, 33.18 119.91 07/03/2015 00:23:20 -81.09, 33.15 119.94 0.73 67
8 07/03/2015 01:13:52 81.11,-158.76 60.16 07/03/2015 01:13:59 81.11,-158.85 60.16 1.44 7
9 07/05/2015 19:58:44 -81.11, 99.97 119.62 07/05/2015 19:57:41 -81.11, 100.11 119.63 2.30 63
10 07/05/2015 20:48:09 81.13, -91.99 60.44 07/05/2015 20:48:20 81.13, -91.91 60.46 1.39 11
11 07/08/2015 15:33:01 -81.10, 166.33 119.35 07/08/2015 15:32:03 -81.10, 166.29 119.38 0.73 58
